CUBESX-HSE (47952 NORAD) Tracking and Keplerian Element Data

This shows tracking and keplerian element data for the satellite.

Feedback or suggestion? Click here.




ElementValue
Catalog47952
NameCUBESX-HSE
Epoch Orbit1321
Epoch Day169.52849801
Epoch Year2021
RAAN71.6681
Inclination97.5596
Eccentricity0.0020729
Argument of Perigee311.5325
Mean Anonmoly173.8748
Mean Motion15.05709869
Decay Rate6E-06
L11 47952U 21022W 21169.52849801 .00000600 00000-0 45618-4 0 9994
L22 47952 97.5596 71.6681 0020729 311.5325 173.8748 15.05709869 13214

Live tracking and technical data element details for CUBESX-HSE (NORAD 47952). CUBESX-HSE can be tracked NOW for your location showing map with azimuth and elevation plus other details from your city location.

Track the satellite on the map from your city or location and see movement details for azimuth, elevation, latitude, longitude, range, height, and movement on the map or in text.







IsCatalogInMostPopularTable: catalog: 47952, numindb: 46
Update: records affected: 1



GetName: 47952 CUBESX-HSE

Hit Count: updated at: Mon, 21 Jun 2021 03:04:39 GMT